TAM3775 SBCT-SBBR

Flight info

Callsign TAM3775
Flight time 1h 23m
Altitude 35000
Route GIKLU UZ5 VUDOT
Aircraft A321/M-SDE3FGHIRWY/LB1

Departure

Time 2026-05-08 16:13
Airport Curitiba-Afonso Pena International Airport (SBCT)

Arrival

Time 2026-05-08 17:37
Airport Presidente Juscelino Kubitschek International Airport (SBBR)
Time Latitude Longitude Altitude Speed Heading
2026-05-08 16:03 -25.53690 -49.17081 2993 ft 0 kts 225°
2026-05-08 16:09 -25.53674 -49.17061 2993 ft 4 kts 234°
2026-05-08 16:09 -25.53662 -49.17036 2991 ft 4 kts 258°
2026-05-08 16:09 -25.53663 -49.17010 2990 ft 3 kts 310°
2026-05-08 16:09 -25.53665 -49.17006 2990 ft 1 kts 315°
2026-05-08 16:11 -25.53658 -49.17008 2990 ft 4 kts 351°
2026-05-08 16:11 -25.53612 -49.16962 2990 ft 12 kts 81°
2026-05-08 16:12 -25.53616 -49.16882 2990 ft 9 kts 90°
2026-05-08 16:12 -25.53612 -49.16815 2990 ft 12 kts 85°
2026-05-08 16:12 -25.53604 -49.16723 2992 ft 1 kts 58°
2026-05-08 16:12 -25.53598 -49.16725 2992 ft 1 kts 354°
2026-05-08 16:13 -25.53520 -49.16828 2990 ft 54 kts 314°
2026-05-08 16:13 -25.53074 -49.17329 2993 ft 126 kts 315°
2026-05-08 16:13 -25.52316 -49.18185 3042 ft 179 kts 313°
2026-05-08 16:13 -25.51490 -49.19167 3879 ft 174 kts 306°
2026-05-08 16:14 -25.50727 -49.20211 4590 ft 171 kts 309°
2026-05-08 16:14 -25.49633 -49.20782 4955 ft 187 kts 356°
2026-05-08 16:14 -25.48315 -49.20559 5283 ft 197 kts
2026-05-08 16:14 -25.46913 -49.20600 5412 ft 209 kts 347°
2026-05-08 16:15 -25.45417 -49.20874 5539 ft 229 kts 345°
2026-05-08 16:15 -25.43770 -49.21207 5731 ft 250 kts 347°
2026-05-08 16:15 -25.42031 -49.21522 6309 ft 255 kts 348°
2026-05-08 16:15 -25.40265 -49.21800 7017 ft 257 kts 348°
2026-05-08 16:16 -25.38484 -49.22047 7714 ft 259 kts 349°
2026-05-08 16:16 -25.36689 -49.22276 8396 ft 260 kts 349°
2026-05-08 16:16 -25.34885 -49.22495 9048 ft 262 kts 349°
2026-05-08 16:16 -25.33071 -49.22703 9654 ft 263 kts 350°
2026-05-08 16:17 -25.31239 -49.22912 10191 ft 267 kts 349°
2026-05-08 16:17 -25.29327 -49.23132 10351 ft 286 kts 349°
2026-05-08 16:17 -25.27287 -49.23369 10482 ft 304 kts 349°
2026-05-08 16:17 -25.25115 -49.23621 10608 ft 323 kts 350°
2026-05-08 16:18 -25.22824 -49.23886 10740 ft 340 kts 350°
2026-05-08 16:18 -25.20414 -49.24160 10863 ft 357 kts 351°
2026-05-08 16:18 -25.17906 -49.24444 11182 ft 366 kts 351°
2026-05-08 16:18 -25.15365 -49.24727 11704 ft 369 kts 351°
2026-05-08 16:19 -25.12827 -49.25012 12247 ft 372 kts 351°
2026-05-08 16:19 -25.10249 -49.25301 12800 ft 374 kts 351°
2026-05-08 16:19 -25.07612 -49.25595 13335 ft 377 kts 351°
2026-05-08 16:19 -25.05027 -49.25885 13816 ft 380 kts 351°
2026-05-08 16:20 -25.02390 -49.26184 14275 ft 383 kts 351°
2026-05-08 16:20 -24.99734 -49.26488 14705 ft 385 kts 351°
2026-05-08 16:20 -24.97057 -49.26793 15091 ft 388 kts 351°
2026-05-08 16:20 -24.94366 -49.27097 15516 ft 390 kts 351°
2026-05-08 16:21 -24.91657 -49.27402 15959 ft 392 kts 351°
2026-05-08 16:21 -24.88937 -49.27708 16407 ft 394 kts 351°
2026-05-08 16:21 -24.86198 -49.28016 16796 ft 397 kts 351°
2026-05-08 16:21 -24.83444 -49.28326 17175 ft 399 kts 351°
2026-05-08 16:22 -24.80665 -49.28638 17551 ft 402 kts 351°
2026-05-08 16:22 -24.77875 -49.28952 17943 ft 404 kts 351°
2026-05-08 16:22 -24.75078 -49.29266 18299 ft 405 kts 351°
2026-05-08 16:22 -24.72264 -49.29579 18647 ft 408 kts 351°
2026-05-08 16:23 -24.69435 -49.29898 18983 ft 409 kts 351°
2026-05-08 16:23 -24.66594 -49.30220 19323 ft 412 kts 351°
2026-05-08 16:23 -24.63734 -49.30545 19668 ft 414 kts 351°
2026-05-08 16:23 -24.60859 -49.30873 20017 ft 416 kts 350°
2026-05-08 16:24 -24.57970 -49.31202 20381 ft 418 kts 350°
2026-05-08 16:24 -24.55076 -49.31531 20721 ft 420 kts 350°
2026-05-08 16:24 -24.52163 -49.31858 21058 ft 421 kts 350°
2026-05-08 16:24 -24.49239 -49.32181 21368 ft 424 kts 350°
2026-05-08 16:25 -24.46303 -49.32504 21673 ft 425 kts 349°
2026-05-08 16:25 -24.43352 -49.32827 21987 ft 427 kts 349°
2026-05-08 16:25 -24.40387 -49.33155 22295 ft 429 kts 349°
2026-05-08 16:25 -24.37410 -49.33487 22565 ft 431 kts 349°
2026-05-08 16:26 -24.34424 -49.33823 22860 ft 433 kts 349°
2026-05-08 16:26 -24.31423 -49.34162 23146 ft 434 kts 349°
2026-05-08 16:26 -24.28413 -49.34500 23405 ft 436 kts 349°
2026-05-08 16:26 -24.25389 -49.34841 23664 ft 437 kts 348°
2026-05-08 16:27 -24.22358 -49.35183 23899 ft 439 kts 348°
2026-05-08 16:27 -24.19312 -49.35527 24123 ft 441 kts 348°
2026-05-08 16:27 -24.16255 -49.35868 24380 ft 442 kts 348°
2026-05-08 16:27 -24.13230 -49.36203 24636 ft 443 kts 348°
2026-05-08 16:28 -24.10157 -49.36542 24898 ft 445 kts 348°
2026-05-08 16:28 -24.07073 -49.36885 25164 ft 446 kts 348°
2026-05-08 16:28 -24.03979 -49.37232 25428 ft 447 kts 348°
2026-05-08 16:28 -24.00875 -49.37581 25669 ft 449 kts 348°
2026-05-08 16:29 -23.97766 -49.37929 25896 ft 450 kts 348°
2026-05-08 16:29 -23.94639 -49.38282 26093 ft 452 kts 348°
2026-05-08 16:29 -23.91508 -49.38632 26387 ft 452 kts 348°
2026-05-08 16:29 -23.88383 -49.38975 26704 ft 451 kts 348°
2026-05-08 16:30 -23.85264 -49.39316 27021 ft 450 kts 348°
2026-05-08 16:30 -23.82153 -49.39659 27362 ft 449 kts 348°
2026-05-08 16:30 -23.79054 -49.40002 27701 ft 447 kts 348°
2026-05-08 16:30 -23.75964 -49.40344 28015 ft 446 kts 348°
2026-05-08 16:31 -23.72876 -49.40688 28338 ft 445 kts 348°
2026-05-08 16:31 -23.69796 -49.41028 28663 ft 444 kts 348°
2026-05-08 16:31 -23.66726 -49.41368 28971 ft 443 kts 348°
2026-05-08 16:31 -23.63662 -49.41705 29298 ft 442 kts 348°
2026-05-08 16:32 -23.60610 -49.42041 29623 ft 440 kts 348°
2026-05-08 16:32 -23.57566 -49.42380 29912 ft 439 kts 348°
2026-05-08 16:32 -23.54533 -49.42718 30182 ft 439 kts 348°
2026-05-08 16:32 -23.51496 -49.43052 30464 ft 438 kts 348°
2026-05-08 16:33 -23.48466 -49.43387 30744 ft 438 kts 348°
2026-05-08 16:33 -23.45439 -49.43723 30988 ft 438 kts 348°
2026-05-08 16:33 -23.42368 -49.43781 31241 ft 446 kts 358°
2026-05-08 16:33 -23.39280 -49.43232 31502 ft 454 kts
2026-05-08 16:34 -23.36204 -49.42467 31773 ft 453 kts
2026-05-08 16:34 -23.33124 -49.41707 31984 ft 454 kts
2026-05-08 16:34 -23.30049 -49.40955 32273 ft 453 kts
2026-05-08 16:34 -23.26977 -49.40207 32550 ft 452 kts
2026-05-08 16:35 -23.23905 -49.39459 32810 ft 452 kts
2026-05-08 16:35 -23.20878 -49.38720 33076 ft 452 kts
2026-05-08 16:35 -23.17814 -49.37936 33332 ft 453 kts
2026-05-08 16:35 -23.14754 -49.37103 33586 ft 453 kts
2026-05-08 16:36 -23.11700 -49.36240 33840 ft 453 kts
2026-05-08 16:36 -23.08647 -49.35370 34064 ft 454 kts
2026-05-08 16:36 -23.05589 -49.34504 34291 ft 453 kts
2026-05-08 16:36 -23.02536 -49.33649 34511 ft 453 kts
2026-05-08 16:37 -22.99483 -49.32806 34732 ft 453 kts
2026-05-08 16:37 -22.96415 -49.31963 34915 ft 454 kts
2026-05-08 16:37 -22.90243 -49.30278 34972 ft 462 kts
2026-05-08 16:38 -22.83963 -49.28557 34980 ft 468 kts
2026-05-08 16:38 -22.77645 -49.26816 34980 ft 469 kts
2026-05-08 16:39 -22.71316 -49.25071 34981 ft 469 kts
2026-05-08 16:39 -22.64975 -49.23330 34982 ft 470 kts
2026-05-08 16:40 -22.58665 -49.21606 34987 ft 471 kts
2026-05-08 16:40 -22.52268 -49.19833 34991 ft 472 kts
2026-05-08 16:41 -22.45947 -49.18027 34994 ft 473 kts
2026-05-08 16:42 -22.36395 -49.15315 34988 ft 473 kts
2026-05-08 16:42 -22.29995 -49.13726 34988 ft 471 kts
2026-05-08 16:43 -22.23584 -49.12220 34984 ft 472 kts
2026-05-08 16:43 -22.17178 -49.10652 34984 ft 472 kts
2026-05-08 16:44 -22.10771 -49.09052 34989 ft 473 kts
2026-05-08 16:44 -22.04356 -49.07464 34992 ft 473 kts
2026-05-08 16:45 -21.97937 -49.05888 34993 ft 473 kts
2026-05-08 16:45 -21.91507 -49.04302 34982 ft 475 kts
2026-05-08 16:46 -21.85060 -49.02712 34980 ft 476 kts
2026-05-08 16:46 -21.78596 -49.01120 34987 ft 477 kts
2026-05-08 16:47 -21.72121 -48.99534 35002 ft 478 kts
2026-05-08 16:47 -21.66732 -48.98209 34996 ft 478 kts
2026-05-08 16:48 -21.60221 -48.96858 35000 ft 475 kts
2026-05-08 16:48 -21.53678 -48.95889 35006 ft 474 kts
2026-05-08 16:49 -21.47133 -48.94960 35006 ft 475 kts
2026-05-08 16:49 -21.40583 -48.93943 35014 ft 476 kts
2026-05-08 16:50 -21.34030 -48.92874 35015 ft 476 kts
2026-05-08 16:50 -21.27477 -48.91797 35015 ft 477 kts
2026-05-08 16:51 -21.20915 -48.90731 35015 ft 477 kts
2026-05-08 16:51 -21.14349 -48.89685 35016 ft 477 kts
2026-05-08 16:52 -21.07783 -48.88648 35017 ft 477 kts
2026-05-08 16:52 -21.01212 -48.87611 35025 ft 477 kts
2026-05-08 16:53 -20.91360 -48.86037 35025 ft 478 kts
2026-05-08 16:53 -20.84828 -48.84991 35025 ft 478 kts
2026-05-08 16:54 -20.78258 -48.83938 35024 ft 478 kts
2026-05-08 16:54 -20.71677 -48.82895 35027 ft 478 kts
2026-05-08 16:55 -20.65088 -48.81905 35030 ft 477 kts
2026-05-08 16:55 -20.58489 -48.81204 35031 ft 476 kts 360°
2026-05-08 16:56 -20.51884 -48.80609 35031 ft 476 kts 360°
2026-05-08 16:56 -20.45279 -48.79963 35033 ft 477 kts
2026-05-08 16:57 -20.38676 -48.79259 35038 ft 477 kts
2026-05-08 16:57 -20.32065 -48.78548 35038 ft 478 kts
2026-05-08 16:58 -20.25450 -48.77851 35042 ft 478 kts
2026-05-08 16:58 -20.18827 -48.77163 35045 ft 478 kts
2026-05-08 16:59 -20.12202 -48.76473 35048 ft 479 kts
2026-05-08 16:59 -20.05565 -48.75781 35055 ft 479 kts
2026-05-08 17:00 -19.98933 -48.75079 35060 ft 479 kts
2026-05-08 17:00 -19.92291 -48.74381 35058 ft 480 kts
2026-05-08 17:01 -19.85641 -48.73688 35061 ft 480 kts
2026-05-08 17:01 -19.78985 -48.72993 35057 ft 481 kts
2026-05-08 17:02 -19.72366 -48.72304 35071 ft 481 kts
2026-05-08 17:02 -19.65700 -48.71615 35079 ft 482 kts
2026-05-08 17:03 -19.59029 -48.70926 35100 ft 482 kts
2026-05-08 17:03 -19.52351 -48.70228 35104 ft 482 kts
2026-05-08 17:04 -19.45682 -48.69531 35109 ft 482 kts
2026-05-08 17:04 -19.39009 -48.68836 35112 ft 482 kts
2026-05-08 17:05 -19.32339 -48.68148 35116 ft 482 kts
2026-05-08 17:05 -19.25653 -48.67453 35123 ft 483 kts
2026-05-08 17:06 -19.19012 -48.66769 35123 ft 483 kts
2026-05-08 17:06 -19.12322 -48.66104 35129 ft 482 kts
2026-05-08 17:07 -19.05641 -48.65504 35131 ft 482 kts
2026-05-08 17:07 -18.98953 -48.64918 35132 ft 482 kts
2026-05-08 17:08 -18.92268 -48.64321 35134 ft 483 kts
2026-05-08 17:08 -18.85569 -48.63708 35141 ft 483 kts
2026-05-08 17:09 -18.78876 -48.63093 35143 ft 483 kts
2026-05-08 17:09 -18.72176 -48.62485 35144 ft 483 kts
2026-05-08 17:10 -18.65472 -48.61890 35141 ft 483 kts
2026-05-08 17:10 -18.58769 -48.61285 35140 ft 484 kts
2026-05-08 17:11 -18.52125 -48.60063 35133 ft 489 kts
2026-05-08 17:11 -18.45468 -48.58707 35134 ft 486 kts
2026-05-08 17:12 -18.38772 -48.57716 35137 ft 486 kts
2026-05-08 17:12 -18.32107 -48.56733 35135 ft 487 kts
2026-05-08 17:13 -18.25408 -48.55633 35137 ft 488 kts
2026-05-08 17:13 -18.18702 -48.54484 35133 ft 488 kts
2026-05-08 17:14 -18.11996 -48.53346 35125 ft 488 kts
2026-05-08 17:14 -18.05285 -48.52232 35116 ft 488 kts
2026-05-08 17:15 -17.98574 -48.51124 35112 ft 488 kts
2026-05-08 17:15 -17.91860 -48.50008 35108 ft 489 kts
2026-05-08 17:16 -17.85138 -48.48887 35105 ft 489 kts
2026-05-08 17:16 -17.78416 -48.47770 35106 ft 490 kts
2026-05-08 17:17 -17.71682 -48.46651 35109 ft 490 kts
2026-05-08 17:17 -17.64954 -48.45541 35113 ft 489 kts
2026-05-08 17:18 -17.58223 -48.44427 35115 ft 490 kts
2026-05-08 17:18 -17.51485 -48.43304 35118 ft 490 kts
2026-05-08 17:19 -17.44749 -48.42183 35118 ft 490 kts
2026-05-08 17:19 -17.38018 -48.41073 35118 ft 490 kts
2026-05-08 17:20 -17.31338 -48.39974 35058 ft 490 kts
2026-05-08 17:20 -17.27969 -48.39417 34441 ft 489 kts
2026-05-08 17:20 -17.24611 -48.38862 33655 ft 489 kts
2026-05-08 17:21 -17.21249 -48.38308 32843 ft 489 kts
2026-05-08 17:21 -17.17887 -48.37753 31997 ft 489 kts
2026-05-08 17:21 -17.14523 -48.37197 31144 ft 490 kts
2026-05-08 17:21 -17.11154 -48.36641 30245 ft 491 kts
2026-05-08 17:22 -17.07772 -48.36085 29321 ft 492 kts
2026-05-08 17:22 -17.04403 -48.35531 28358 ft 493 kts
2026-05-08 17:22 -17.00996 -48.34973 27334 ft 494 kts
2026-05-08 17:22 -16.97588 -48.34443 26270 ft 495 kts
2026-05-08 17:23 -16.94170 -48.33945 25162 ft 497 kts
2026-05-08 17:23 -16.90742 -48.33467 24034 ft 498 kts
2026-05-08 17:23 -16.87322 -48.33012 23268 ft 492 kts
2026-05-08 17:23 -16.83949 -48.32572 22549 ft 485 kts
2026-05-08 17:24 -16.80616 -48.32140 21818 ft 480 kts
2026-05-08 17:24 -16.77323 -48.31712 21065 ft 474 kts
2026-05-08 17:24 -16.74068 -48.31279 20351 ft 469 kts
2026-05-08 17:24 -16.70860 -48.30788 19599 ft 463 kts
2026-05-08 17:25 -16.67696 -48.30246 18857 ft 459 kts
2026-05-08 17:25 -16.64573 -48.29676 18140 ft 453 kts
2026-05-08 17:25 -16.61482 -48.29103 17429 ft 449 kts
2026-05-08 17:25 -16.58421 -48.28545 16715 ft 444 kts
2026-05-08 17:26 -16.55396 -48.28002 16018 ft 439 kts
2026-05-08 17:26 -16.52447 -48.27481 15692 ft 433 kts
2026-05-08 17:26 -16.49485 -48.26966 15479 ft 431 kts
2026-05-08 17:26 -16.46536 -48.26460 15236 ft 429 kts
2026-05-08 17:27 -16.43597 -48.25960 14985 ft 427 kts
2026-05-08 17:27 -16.40674 -48.25465 14731 ft 425 kts
2026-05-08 17:27 -16.37754 -48.24966 14473 ft 424 kts
2026-05-08 17:27 -16.34851 -48.24462 13932 ft 421 kts
2026-05-08 17:28 -16.31975 -48.23962 13351 ft 417 kts
2026-05-08 17:28 -16.29127 -48.23468 12784 ft 413 kts
2026-05-08 17:28 -16.26298 -48.22980 12211 ft 410 kts
2026-05-08 17:28 -16.23501 -48.22499 11644 ft 407 kts
2026-05-08 17:29 -16.20709 -48.22017 11453 ft 405 kts
2026-05-08 17:29 -16.17932 -48.21539 11339 ft 405 kts
2026-05-08 17:29 -16.15154 -48.21060 11185 ft 404 kts
2026-05-08 17:29 -16.12384 -48.20581 10989 ft 403 kts
2026-05-08 17:30 -16.09626 -48.20105 10809 ft 402 kts
2026-05-08 17:30 -16.06870 -48.19633 10634 ft 400 kts
2026-05-08 17:30 -16.04127 -48.19162 10465 ft 399 kts
2026-05-08 17:30 -16.01391 -48.18693 10267 ft 395 kts
2026-05-08 17:31 -15.98737 -48.18238 10120 ft 378 kts
2026-05-08 17:31 -15.96228 -48.17751 9993 ft 356 kts 11°
2026-05-08 17:31 -15.93886 -48.17237 9871 ft 331 kts 12°
2026-05-08 17:31 -15.91732 -48.16733 9674 ft 304 kts 13°
2026-05-08 17:32 -15.89818 -48.16051 9398 ft 281 kts 31°
2026-05-08 17:32 -15.88349 -48.14737 8315 ft 289 kts 56°
2026-05-08 17:32 -15.87643 -48.12774 7384 ft 293 kts 83°
2026-05-08 17:32 -15.87528 -48.10710 6939 ft 278 kts 85°
2026-05-08 17:33 -15.87398 -48.08777 6466 ft 265 kts 84°
2026-05-08 17:33 -15.87267 -48.06927 6122 ft 247 kts 84°
2026-05-08 17:33 -15.87155 -48.05208 5819 ft 232 kts 84°
2026-05-08 17:33 -15.87052 -48.03583 5519 ft 211 kts 85°
2026-05-08 17:34 -15.86960 -48.02138 5263 ft 189 kts 85°
2026-05-08 17:34 -15.86878 -48.00867 5001 ft 172 kts 85°
2026-05-08 17:34 -15.86801 -47.99664 4785 ft 164 kts 85°
2026-05-08 17:34 -15.86725 -47.98484 4570 ft 162 kts 85°
2026-05-08 17:35 -15.86650 -47.97322 4348 ft 160 kts 85°
2026-05-08 17:35 -15.86577 -47.96187 4148 ft 160 kts 85°
2026-05-08 17:35 -15.86503 -47.95037 3933 ft 159 kts 85°
2026-05-08 17:35 -15.86436 -47.93890 3729 ft 159 kts 85°
2026-05-08 17:36 -15.86359 -47.92740 3527 ft 160 kts 83°
2026-05-08 17:36 -15.86288 -47.91644 3473 ft 140 kts 86°
2026-05-08 17:36 -15.86234 -47.90834 3476 ft 75 kts 86°
2026-05-08 17:36 -15.86201 -47.90370 3482 ft 58 kts 85°
2026-05-08 17:37 -15.86183 -47.90012 3483 ft 42 kts 86°
2026-05-08 17:37 -15.86171 -47.89842 3481 ft 25 kts 92°
2026-05-08 17:37 -15.86268 -47.89745 3473 ft 19 kts 169°
2026-05-08 17:37 -15.86363 -47.89796 3472 ft 15 kts 273°
2026-05-08 17:38 -15.86368 -47.89898 3472 ft 13 kts 264°
2026-05-08 17:38 -15.86376 -47.89989 3472 ft 12 kts 267°
2026-05-08 17:38 -15.86382 -47.90115 3472 ft 21 kts 266°
2026-05-08 17:38 -15.86391 -47.90263 3472 ft 20 kts 266°
2026-05-08 17:39 -15.86403 -47.90403 3472 ft 19 kts 265°
2026-05-08 17:39 -15.86411 -47.90538 3470 ft 18 kts 268°
2026-05-08 17:39 -15.86417 -47.90665 3472 ft 17 kts 266°
2026-05-08 17:39 -15.86424 -47.90779 3472 ft 16 kts 266°
2026-05-08 17:40 -15.86430 -47.90898 3471 ft 16 kts 266°
2026-05-08 17:40 -15.86437 -47.91011 3471 ft 16 kts 266°
2026-05-08 17:40 -15.86447 -47.91146 3471 ft 23 kts 264°
2026-05-08 17:40 -15.86457 -47.91317 3471 ft 23 kts 266°
2026-05-08 17:41 -15.86470 -47.91481 3470 ft 23 kts 266°
2026-05-08 17:41 -15.86495 -47.91622 3469 ft 12 kts 221°
2026-05-08 17:41 -15.86559 -47.91626 3470 ft 16 kts 179°
2026-05-08 17:41 -15.86733 -47.91614 3469 ft 32 kts 176°
2026-05-08 17:42 -15.86971 -47.91601 3470 ft 34 kts 176°
2026-05-08 17:42 -15.87202 -47.91583 3470 ft 33 kts 175°
2026-05-08 17:42 -15.87315 -47.91605 3470 ft 3 kts 262°
2026-05-08 17:42 -15.87314 -47.91611 3469 ft 4 kts 277°
2026-05-08 17:43 -15.87315 -47.91701 3470 ft 16 kts 268°
2026-05-08 17:43 -15.87303 -47.91802 3470 ft 11 kts 323°
2026-05-08 17:43 -15.87259 -47.91803 3470 ft 0 kts 357°